Weather History for Chicopee, MA

Change the Weather History Date:

Sunday, February 3, 2013

  Actual Average Record
Temperature  
Mean Temperature 20 °F -  
Max Temperature 28 °F 33 °F 51 °F (2006)
Min Temperature 12 °F 17 °F 0 °F (2011)
Degree Days  
Heating Degree Days 45    
Moisture  
Dew Point 17 °F    
Average Humidity 86    
Maximum Humidity 100    
Minimum Humidity 56    
Precipitation  
Precipitation 0.01 in - - ()
Sea Level Pressure  
Sea Level Pressure 29.95 in    
Wind  
Wind Speed 2 mph (NNW)    
Max Wind Speed 7 mph    
Max Gust Speed -    
Visibility 7 miles    
Events Snow    
Averages and records for this station are not official NWS values.
T = Trace of Precipitation, MM = Missing Value Source: NWS Daily Summary

Daily Weather History Graph

Daily Weather History Graph

Search for Another Location

Airport:

Trip Planner

Search our weather history database for the weather conditions in past years. The results will help you decide how hot, cold, wet, or windy it might be!

Date:

Astronomy

Feb. 03, 2013 Rise Set
Actual Time 7:00 AM EST 5:07 PM EST
Civil Twilight 6:31 AM EST 5:37 PM EST
Nautical Twilight 5:58 AM EST 6:10 PM EST
Astronomical Twilight 5:25 AM EST 6:43 PM EST
Moon 12:25 AM EST (2/3) 10:42 AM EST (2/3)
Length of Visible Light 11h 05m
Length of Day
10h 06m
Waning Gibbous, 49% of the Moon is Illuminated
Feb 3
Waning Gibbous
Feb 10
New
Feb 17
First Quarter
Feb 25
Full
Mar 4
Last Quarter

Hourly Weather History & Observations

Time (EST) Temp. Windchill Dew Point Humidity Pressure Visibility Wind Dir Wind Speed Gust Speed Precip Events Conditions
12:21 AM 21.2 °F 12.6 °F 17.6 °F 86% 30.06 in 5.0 mi SW 6.9 mph - N/A Snow Light Snow
12:23 AM 21.2 °F 13.6 °F 17.6 °F 86% 30.06 in 5.0 mi SW 5.8 mph - N/A Snow Light Snow
12:34 AM 21.2 °F 13.6 °F 17.6 °F 86% 30.05 in 6.0 mi SW 5.8 mph - N/A Snow Light Snow
12:37 AM 21.2 °F 14.9 °F 17.6 °F 86% 30.05 in 5.0 mi SSW 4.6 mph - N/A Snow Light Snow
12:40 AM 21.2 °F 13.6 °F 17.6 °F 86% 30.05 in 5.0 mi SW 5.8 mph - N/A Snow Light Snow
12:55 AM 21.7 °F - 18.1 °F 86% 30.05 in 3.0 mi Calm Calm - 0.00 in Snow Light Snow
12:57 AM 21.2 °F - 17.6 °F 86% 30.05 in 3.0 mi Calm Calm - N/A Snow Light Snow
1:04 AM 21.2 °F - 19.4 °F 93% 30.04 in 4.0 mi Calm Calm - N/A Snow Light Snow
1:11 AM 21.2 °F - 19.4 °F 93% 30.04 in 6.0 mi Calm Calm - N/A Snow Light Snow
1:13 AM 21.2 °F - 19.4 °F 93% 30.04 in 7.0 mi Calm Calm - N/A Snow Light Snow
1:15 AM 21.2 °F - 19.4 °F 93% 30.04 in 7.0 mi Calm Calm - N/A   Scattered Clouds
1:51 AM 21.2 °F - 19.4 °F 93% 30.03 in 10.0 mi Calm Calm - N/A Snow Light Snow
1:55 AM 21.4 °F - 18.7 °F 89% 30.03 in 9.0 mi Calm Calm - 0.00 in Snow Light Snow
2:16 AM 21.2 °F - 19.4 °F 93% 30.02 in 8.0 mi Calm Calm - N/A Snow Light Snow
2:18 AM 21.2 °F - 19.4 °F 93% 30.02 in 7.0 mi Calm Calm - N/A Snow Light Snow
2:48 AM 21.2 °F - 19.4 °F 93% 30.01 in 3.0 mi Calm Calm - N/A Snow Light Snow
2:51 AM 21.2 °F - 19.4 °F 93% 30.01 in 2.5 mi Calm Calm - N/A Snow Light Snow
2:55 AM 21.2 °F - 19.4 °F 93% 30.01 in 2.5 mi Calm Calm - 0.00 in Snow Light Snow
2:57 AM 21.2 °F - 19.4 °F 93% 30.01 in 3.0 mi Calm Calm - N/A Snow Light Snow
3:03 AM 21.2 °F - 19.4 °F 93% 30.01 in 4.0 mi Calm Calm - N/A Snow Light Snow
3:04 AM 21.2 °F - 19.4 °F 93% 30.01 in 4.0 mi Calm Calm - N/A Snow Light Snow
3:18 AM 21.2 °F - 19.4 °F 93% 30.00 in 5.0 mi Calm Calm - N/A Snow Light Snow
3:26 AM 21.2 °F - 19.4 °F 93% 30.00 in 6.0 mi Calm Calm - N/A Snow Light Snow
3:42 AM 21.2 °F - 19.4 °F 93% 29.99 in 8.0 mi Calm Calm - N/A   Scattered Clouds
3:55 AM 20.5 °F - 18.7 °F 93% 29.99 in 10.0 mi Calm Calm - 0.00 in   Mostly Cloudy
4:28 AM 17.6 °F - 17.6 °F 100% 29.99 in 2.5 mi Calm Calm - N/A   Scattered Clouds
4:29 AM 17.6 °F - 17.6 °F 100% 29.98 in 2.0 mi Calm Calm - N/A   Scattered Clouds
4:30 AM 17.6 °F - 17.6 °F 100% 29.98 in 1.8 mi Calm Calm - N/A   Scattered Clouds
4:33 AM 17.6 °F - 15.8 °F 93% 29.98 in 1.5 mi Calm Calm - N/A   Scattered Clouds
4:36 AM 17.6 °F - 15.8 °F 93% 29.98 in 1.8 mi Calm Calm - N/A   Partly Cloudy
4:37 AM 17.6 °F - 15.8 °F 93% 29.98 in 2.0 mi Calm Calm - N/A   Partly Cloudy
4:38 AM 17.6 °F - 15.8 °F 93% 29.98 in 2.5 mi Calm Calm - N/A   Partly Cloudy
4:39 AM 17.6 °F - 15.8 °F 93% 29.98 in 3.0 mi Calm Calm - N/A   Partly Cloudy
4:55 AM 14.9 °F - 13.3 °F 93% 29.98 in 10.0 mi Calm Calm - N/A   Clear
5:55 AM 13.6 °F - 11.8 °F 93% 29.97 in 10.0 mi Calm Calm - N/A   Clear
6:55 AM 12.7 °F 6.7 °F 10.6 °F 91% 29.96 in 10.0 mi NNE 3.5 mph - N/A   Scattered Clouds
7:55 AM 13.1 °F - 11.1 °F 92% 29.99 in 10.0 mi Calm Calm - N/A   Scattered Clouds
8:55 AM 19.8 °F - 18.9 °F 96% 29.97 in 10.0 mi Calm Calm - N/A   Overcast
9:55 AM 22.8 °F 16.7 °F 19.0 °F 85% 29.95 in 10.0 mi Variable 4.6 mph - N/A   Overcast
10:55 AM 25.5 °F 18.7 °F 16.0 °F 67% 29.93 in 10.0 mi North 5.8 mph - N/A   Overcast
10:59 AM 24.8 °F 19.1 °F 15.8 °F 69% 29.92 in 10.0 mi North 4.6 mph - N/A   Overcast
11:55 AM 26.1 °F 18.4 °F 15.8 °F 65% 29.88 in 10.0 mi North 6.9 mph - N/A   Overcast
12:47 PM 26.6 °F 21.2 °F 15.8 °F 64% 29.85 in 10.0 mi WNW 4.6 mph - N/A   Overcast
12:55 PM 26.8 °F 22.8 °F 15.1 °F 61% 29.84 in 10.0 mi Variable 3.5 mph - N/A   Overcast
1:55 PM 28.0 °F 21.7 °F 14.7 °F 57% 29.82 in 10.0 mi NE 5.8 mph - N/A   Overcast
2:55 PM 28.2 °F 23.1 °F 14.9 °F 57% 29.80 in 10.0 mi North 4.6 mph - N/A   Overcast
3:55 PM 28.4 °F 21.2 °F 14.4 °F 56% 29.79 in 10.0 mi North 6.9 mph - N/A   Mostly Cloudy
4:55 PM 26.4 °F 22.4 °F 13.6 °F 59% 29.78 in 10.0 mi NE 3.5 mph - N/A   Partly Cloudy
5:55 PM 24.1 °F - 15.8 °F 71% 29.77 in 10.0 mi Calm Calm - N/A   Clear
6:55 PM 21.7 °F - 16.2 °F 79% 29.78 in 10.0 mi Calm Calm - N/A   Partly Cloudy
7:55 PM 18.9 °F - 15.4 °F 87% 29.78 in 10.0 mi Calm Calm - N/A   Clear
8:55 PM 19.2 °F - 15.6 °F 86% 29.78 in 10.0 mi Calm Calm - N/A   Clear
9:55 PM 18.7 °F - 16.0 °F 89% 29.77 in 10.0 mi Calm Calm - N/A   Overcast
10:55 PM 18.5 °F - 15.8 °F 89% 29.77 in 10.0 mi Calm Calm - N/A   Mostly Cloudy
11:55 PM 14.2 °F - 12.7 °F 94% 29.77 in 10.0 mi Calm Calm - N/A   Clear